Location: Asheville, NC
(35.6000°N, 82.5500°W)
Time: 21:48:15
(UTC-04:00)

ITUPSAT 1 - Visible Passes

Search period start: 25 April 2018 00:00
Search period end: 05 May 2018 00:00
Orbit: 702 x 714 km, 98.6° (Epoch: 24 April)

Date Brightness Start Highest point End Pass type
(mag) Time Alt. Az. Time Alt. Az. Time Alt. Az.
25 Apr ? 03:31:30 12° ESE 03:34:07 18° ENE 03:37:18 10° NNE visible
25 Apr ? 05:10:29 35° SW 05:11:34 41° W 05:16:03 10° NNW visible
26 Apr ? 04:16:17 31° SE 04:18:12 51° ENE 04:22:49 10° N visible
26 Apr ? 05:55:16 13° WSW 05:56:16 14° W 05:58:38 10° WNW visible
27 Apr ? 03:22:40 10° E 03:25:15 15° ENE 03:27:50 10° NNE visible
27 Apr ? 05:01:04 37° SSW 05:02:35 52° W 05:07:14 10° NNW visible
28 Apr ? 04:06:51 23° SE 04:09:17 41° ENE 04:13:44 10° N visible
28 Apr ? 05:45:51 15° WSW 05:47:14 17° W 05:50:21 10° NW visible
29 Apr ? 03:14:45 10° E 03:16:25 12° ENE 03:18:04 10° NE visible
29 Apr ? 04:51:39 34° S 04:53:37 66° WSW 04:58:21 10° NNW visible
30 Apr ? 03:57:27 17° ESE 04:00:23 33° ENE 04:04:37 10° N visible
30 Apr ? 05:36:26 18° SW 05:38:12 22° W 05:41:51 10° NW visible
01 May ? 04:42:15 29° S 04:44:39 83° W 04:49:26 10° NNW visible
02 May ? 03:48:03 12° ESE 03:51:30 26° ENE 03:55:26 10° NNE visible
02 May ? 05:27:02 20° SW 05:29:11 27° W 05:33:13 10° NW visible
03 May ? 04:32:51 24° SSE 04:35:42 78° ENE 04:40:28 10° N visible
04 May ? 03:39:04 10° ESE 03:42:37 21° ENE 03:46:11 10° NNE visible
04 May ? 05:17:39 20° SSW 05:20:10 34° W 05:24:30 10° NNW visible
